Skip Page Navigation
NASA JPL Caltech
NASA Logo - Jet Propulsion Laboratory + View the NASA Portal
+ Center for Near-Earth Object Studies
JPL Home Earth Solar System Stars & Galaxies Technology
JPL Solar System Dynamics
BODIES ORBITS EPHEMERIDES TOOLS PHYSICAL DATA DISCOVERY FAQ SITE MAP
IMPORTANT: The SSD Announcement email list is now available. Major changes are coming in the near future, including possible hostname and/or URL changes. To be notified of such changes, subscribe to this email list.

Please visit this page for more details.


JPL Small-Body Database Browser
Search: [ help ]  
39793 (1997 SZ23)
Classification: Jupiter Trojan          SPK-ID: 2039793
Ephemeris | Orbit Diagram | Orbital Elements | Mission Design | Physical Parameters | Discovery Circumstances ]

[ show orbit diagram ]
Orbital Elements at Epoch 2458600.5 (2019-Apr-27.0) TDB
Reference: JPL 12 (heliocentric ecliptic J2000)
 Element Value Uncertainty (1-sigma)   Units 
e .06473393050027899 6.7273e-08  
a 5.191696297067973 1.8277e-07 au
q 4.855617389795019 3.5256e-07 au
i 14.99067818796129 7.9235e-06 deg
node 22.13565839125462 2.6715e-05 deg
peri 96.47546171554139 8.6113e-05 deg
M 219.5059920603916 8.9178e-05 deg
tp 2460286.733243396258
(2023-Dec-08.23324340)
0.0011327 TDB
period 4320.781907535814
11.83
0.00022817
6.247e-07
d
yr
n .08331825296993796 4.3998e-09 deg/d
Q 5.527775204340927 1.9461e-07 au
  Orbit Determination Parameters
   # obs. used (total)      239  
   data-arc span      8368 days (22.91 yr)  
   first obs. used      1996-10-09  
   last obs. used      2019-09-07  
   planetary ephem.      DE431  
   SB-pert. ephem.      SB431-N16  
   condition code      0  
   norm. resid. RMS      .58445  
   source      ORB  
   producer      Otto Matic  
   solution date      2019-Sep-24 02:00:27  

Additional Information
 Earth MOID = 3.91281 au 
 Jupiter MOID = .270711 au 
 T_jup = 2.928 
[ show covariance matrix ]

Ephemeris | Orbit Diagram | Orbital Elements | Mission Design | Physical Parameters | Discovery Circumstances ]

Physical Parameter Table
Parameter Symbol Value Units Sigma Reference Notes
absolute magnitude H 12.6   n/a MPO412461  
diameter diameter 11.616 km 0.967 urn:nasa:pds:neowise_diameters_albedos::2.0[jupiter_trojans] (http://adsabs.harvard.edu/abs/2011ApJ...742...40G)  
geometric albedo albedo 0.109   0.034 urn:nasa:pds:neowise_diameters_albedos::2.0[jupiter_trojans] (http://adsabs.harvard.edu/abs/2011ApJ...742...40G)  

39793 (1997 SZ23)          Discovered 1997-Sep-29 by Spacewatch at Kitt Peak
Reference: 20020526/Numbers.arcLast Updated: 2004-04-19
Ephemeris | Orbit Diagram | Orbital Elements | Mission Design | Physical Parameters | Discovery Circumstances ]
ABOUT SSD CREDITS/AWARDS PRIVACY/COPYRIGHT GLOSSARY LINKS
FirstGov 2020-Jan-23 14:24 UT
(server date/time)  
NASA Home Page
Site Manager:   Ryan S. Park
Webmaster  Alan B. Chamberlin